Location: General Nathan Twining Observatory
(34.5931°N, 106.8201°W)
Time: 06:52:33
(UTC-06:00)

ADEOS II - Visible Passes

Search period start: 26 May 2017 00:00
Search period end: 05 June 2017 00:00
Orbit: 799 x 802 km, 98.4° (Epoch: 25 May)

Date Brightness Start Highest point End Pass type
(mag) Time Alt. Az. Time Alt. Az. Time Alt. Az.
26 May 4.1 03:58:41 10° NE 04:02:51 23° E 04:06:59 10° SSE visible
27 May 4.7 03:34:04 10° ENE 03:36:13 12° E 03:38:22 10° ESE visible
27 May 2.2 05:11:06 10° N 05:16:19 64° WNW 05:21:30 10° SSW visible
28 May 2.4 04:44:41 10° NNE 04:49:57 70° ESE 04:55:11 10° S visible
29 May 3.4 04:18:37 10° NNE 04:23:29 38° E 04:28:20 10° SSE visible
30 May 4.3 03:53:03 10° NE 03:56:57 21° E 04:00:49 10° SE visible
31 May 4.8 03:29:09 10° ENE 03:30:18 11° E 03:31:27 10° ESE visible
31 May 2.1 05:05:13 10° N 05:10:28 73° WNW 05:15:42 10° SSW visible
01 Jun 2.5 04:38:52 10° NNE 04:44:05 62° E 04:49:16 10° S visible
02 Jun 3.6 04:12:52 10° NNE 04:17:36 33° E 04:22:19 10° SSE visible
03 Jun 4.4 03:47:28 10° NE 03:51:02 18° E 03:54:36 10° SE visible
03 Jun 2.6 05:25:56 10° N 05:30:55 45° WNW 05:35:53 10° SW visible
04 Jun 2.1 04:59:20 10° N 05:04:36 82° WNW 05:09:52 10° SSW visible
